Location: *
(45.9500°N, 9.0833°E)
Time: 19:16:52
(UTC+00:00)

Cosmos 1959 Rocket - Pass Details

Date: 03 March 2021
Orbit: 948 x 996 km, 83.0° (Epoch: 20 April)

Event Time Altitude Azimuth Distance (km) Brightness Sun altitude
Rises 19:09:39 0° 182° (S) 3,608 7.4 -20.9°
Reaches altitude 10° 19:12:07 10° 181° (S) 2,665 6.7 -21.4°
Maximum altitude 19:18:12 79° 96° (E) 972 4.3 -22.4°
Drops below altitude 10° 19:24:20 10° 11° (N) 2,688 6.9 -23.4°
Sets 19:26:50 0° 10° (N) 3,642 7.6 -23.8°
